Wind_Speed
11 12 15 16 18 21 26 29 30 33 32 27 24 25 30 25 17 16 14 14 15 13 10 17 19 23 23 24 19 20 21 21 22 24 30 35 34 30 32 33 33 30 28
13 15 16 15 14 14 17 21 24 25 25 21 21 20 23 24 18 18 20 18 15 9 6 13 21 25 25 23 19 20 22 23 24 28 30 30 34 36 35 37 38 32 33
16 15 15 15 15 14 15 18 20 22 20 19 17 16 15 16 19 24 22 14 10 11 13 20 19 19 21 26 28 29 28 26 28 31 34 36 34 33 36 37 38 41 39
18 17 15 17 18 18 18 18 18 18 17 17 16 15 13 14 18 24 26 22 18 22 23 26 25 25 20 20 20 20 26 29 31 33 38 43 43 41 40 43 44 44 46
27 24 23 19 21 22 22 22 20 17 16 15 14 11 8 8 24 38 35 35 35 32 22 23 20 26 24 21 18 12 29 28 27 24 36 46 52 47 50 51 52 52 50
30 30 29 26 25 24 25 24 21 22 20 20 17 19 19 33 52 36 49 52 47 36 31 33 22 30 33 32 30 24 26 36 43 36 31 40 39 43 57 61 57 58 59
28 28 28 27 26 26 26 25 27 26 26 27 27 29 32 37 43 42 46 52 50 47 40 36 41 46 38 36 31 33 37 39 43 44 39 45 44 40 55 60 55 61 60
30 31 30 30 28 27 32 33 32 33 36 36 35 39 41 43 45 48 48 50 50 51 51 50 47 55 49 48 48 39 44 45 45 51 57 51 54 46 50 58 61 60 60
38 38 39 36 35 36 36 40 42 43 43 44 45 47 51 53 55 53 52 51 53 59 55 58 62 60 62 57 55 55 52 53 52 54 58 57 63 57 60 60 65 70 70
49 47 47 46 47 47 51 47 52 54 53 53 55 58 60 61 59 61 60 63 64 64 67 67 66 66 69 69 75 74 69 60 68 62 64 64 61 66 67 65 66 69 72
48 46 47 49 52 52 54 54 52 53 54 56 60 63 65 67 66 69 69 68 71 71 72 74 77 79 80 78 77 78 82 79 73 75 71 68 70 71 73 76 76 76 75
30 32 34 35 37 39 41 42 43 45 46 47 50 53 55 58 60 64 71 76 78 76 74 75 76 76 78 78 83 89 90 87 83 79 77 75 77 77 76 77 80 80 79
21 22 23 24 25 27 29 31 33 35 37 39 42 44 45 46 48 49 52 54 58 60 61 60 62 64 67 69 71 70 70 73 74 79 81 79 79 81 81 82 81 80 81
12 11 16 16 17 17 18 19 20 22 23 26 30 32 35 36 38 39 42 45 48 50 51 53 55 56 56 53 49 52 57 60 65 67 71 79 82 84 86 85 85 84 86
13 14 16 16 15 14 14 15 16 18 20 21 22 23 24 27 30 34 38 40 44 46 48 46 46 45 46 45 42 38 39 45 48 52 55 58 66 77 83 85 85 85 85
14 16 14 13 12 11 14 17 18 18 18 18 18 19 20 22 23 25 27 29 32 34 36 38 38 38 37 36 34 29 26 29 34 37 41 45 52 57 59 65 70 72 72
14 15 15 15 16 16 15 15 16 16 19 23 23 22 24 24 23 24 25 28 31 33 34 33 33 35 36 30 27 28 27 27 29 30 31 34 39 44 47 49 51 55 58
14 14 14 13 12 13 15 17 20 20 22 24 29 27 28 33 30 27 30 34 34 32 32 34 34 34 34 35 34 30 27 29 27 26 26 29 33 35 38 43 47 50 51
11 10 11 10 11 11 13 16 19 20 18 22 26 29 33 38 31 30 40 44 37 31 30 32 36 36 34 34 34 36 35 35 33 34 36 36 37 40 42 42 41 43 44
7 8 9 10 11 11 12 15 19 23 22 22 23 25 29 36 36 39 44 51 42 34 34 39 48 48 42 34 31 30 33 38 41 41 42 43 43 43 44 46 47 48 51
5 8 9 10 12 14 16 18 20 22 23 24 25 25 29 34 36 40 47 47 35 34 42 51 55 51 44 38 30 30 29 30 32 34 37 41 44 48 52 56 58 59 61
3 6 9 11 14 16 17 20 23 25 27 26 27 30 30 34 36 37 40 44 39 39 46 45 49 44 41 39 31 28 26 26 28 29 29 29 29 30 32 35 36 37 39
5 8 11 15 16 17 18 21 26 29 27 23 23 25 30 34 38 39 38 43 45 48 46 42 41 43 38 38 32 28 27 26 25 24 22 21 21 21 20 19 19 17 15
10 14 17 18 19 20 24 27 26 26 27 28 33 32 31 34 35 38 36 39 44 49 56 51 40 40 37 38 35 28 27 26 22 19 20 18 14 12 11 10 10 11 12
16 18 19 21 23 25 26 23 25 27 27 27 27 32 36 33 33 38 35 43 46 50 54 59 53 47 38 37 38 33 27 26 19 18 19 18 15 12 11 11 11 12 13
19 20 21 21 23 25 21 22 23 26 27 29 32 31 35 33 32 36 31 38 42 46 52 56 55 46 40 35 35 34 29 27 22 18 16 13 11 10 10 10 11 12 13
Wind_Direction
312 312 299 288 283 274 264 259 254 256 256 254 254 250 251 266 278 279 282 269 282 304 313 310 329 329 327 313 305 307 288 282 279 279 279 279 278 272 274 275 281 283 283
288 297 307 288 283 267 258 254 247 243 249 245 249 251 240 263 270 271 263 269 282 264 295 325 325 332 345 333 333 336 328 326 309 306 298 297 290 287 278 279 281 278 281
289 289 291 294 287 270 256 252 250 248 244 251 250 246 245 271 275 273 267 262 235 249 285 307 318 328 330 339 340 336 335 329 317 310 301 302 302 293 281 281 280 280 281
270 274 275 276 284 287 281 271 268 269 267 265 259 256 267 274 295 296 283 266 259 269 278 276 285 286 288 282 298 318 307 309 304 295 300 297 298 296 287 276 280 286 289
258 257 263 270 272 274 277 276 265 260 258 254 253 243 239 322 309 279 284 271 281 274 268 274 271 276 271 276 280 296 281 280 274 280 292 296 290 286 286 280 277 282 283
257 259 254 258 261 263 264 279 274 274 263 259 245 218 270 249 253 258 261 262 272 271 265 266 263 274 279 272 272 264 259 256 268 252 256 255 278 288 280 279 275 279 284
255 256 260 260 260 263 259 264 270 269 263 259 247 233 238 239 247 254 255 260 263 267 266 257 261 269 266 267 259 270 252 253 262 262 256 255 260 271 276 281 282 280 281
263 260 263 259 260 255 264 265 264 262 260 257 253 245 245 249 251 257 257 258 258 259 256 252 258 255 254 255 263 270 253 253 264 261 256 259 259 252 265 271 278 274 274
261 268 263 262 261 258 270 266 267 266 264 262 256 252 252 252 257 261 263 264 258 255 255 258 263 262 257 258 263 264 264 260 256 256 258 256 260 260 260 269 272 273 277
271 272 271 267 270 269 275 271 273 272 269 261 255 257 255 256 258 258 262 265 262 260 266 268 267 267 263 260 262 264 265 269 265 254 255 257 256 257 255 262 270 275 277
273 270 271 272 274 276 278 277 274 270 267 266 264 261 258 259 260 260 261 265 266 266 268 271 273 275 274 272 269 269 266 265 265 262 254 253 255 256 258 261 267 269 274
270 272 275 277 277 277 277 278 278 276 275 274 272 270 268 266 264 265 266 265 268 273 274 274 277 276 275 274 271 270 269 266 264 257 255 254 253 255 261 264 265 267 272
287 288 287 285 286 287 286 284 282 281 280 279 278 277 276 274 273 273 273 273 274 276 279 281 284 286 286 286 282 278 274 270 267 260 255 252 252 253 257 260 266 268 270
302 310 316 314 314 309 306 303 303 299 295 290 285 283 283 282 281 280 278 279 279 281 284 286 286 290 294 292 286 278 268 262 261 260 258 254 250 251 254 259 264 267 270
316 322 324 322 323 326 323 322 321 324 323 319 317 313 305 295 289 284 281 282 282 282 283 284 287 292 300 305 301 291 276 264 264 262 259 256 254 253 254 258 263 266 270
323 329 334 339 337 343 342 336 335 337 339 335 329 320 310 308 305 302 298 295 293 292 291 289 289 292 300 304 307 299 291 279 275 274 265 262 255 255 260 264 266 269 273
331 334 338 346 351 356 5 13 16 17 20 13 8 358 351 340 334 330 323 316 311 305 303 301 298 292 294 296 298 296 288 287 285 280 279 274 265 264 266 269 271 272 274
336 341 350 357 10 24 34 24 28 38 22 27 17 9 8 8 9 11 8 360 347 334 328 321 313 303 295 292 292 291 290 280 279 276 275 274 270 266 266 268 270 272 274
336 350 3 16 26 27 16 13 9 8 13 11 10 7 7 17 8 4 360 359 354 349 345 342 338 330 318 301 287 282 282 281 280 278 276 273 272 272 269 271 273 277 281
352 11 12 10 9 7 352 353 350 351 355 4 7 359 11 15 6 3 358 2 359 357 357 355 350 349 341 326 312 297 285 278 277 277 276 275 274 274 272 270 272 271 273
358 15 9 -0 356 356 354 348 344 343 344 348 351 354 356 354 354 355 5 1 352 354 351 338 339 343 344 335 324 313 305 298 292 285 281 279 278 277 276 274 274 272 273
342 346 344 344 346 347 351 358 360 357 353 350 350 355 -0 356 352 355 358 7 8 352 339 337 334 344 346 344 336 332 324 314 310 307 305 301 297 295 291 289 288 287 285
329 341 343 342 342 341 343 341 346 346 351 357 355 352 359 356 351 349 350 359 5 2 358 348 342 342 344 347 343 336 336 334 339 334 322 316 312 311 313 312 313 319 325
326 329 329 330 330 324 328 338 338 335 340 343 348 353 347 349 344 344 347 352 353 354 359 4 352 350 348 347 349 345 347 347 349 359 8 6 358 353 349 350 1 8 8
316 319 322 325 325 327 330 331 332 332 331 337 340 340 340 344 345 343 339 341 352 1 1 3 1 357 350 349 349 354 352 355 347 353 356 356 1 8 22 27 27 27 27
308 312 315 320 323 328 328 327 328 336 337 338 337 340 347 352 345 343 341 342 351 351 357 360 4 360 353 346 349 354 356 356 2 17 21 29 38 37 28 20 15 15 15
Height
10995 10994 10991 10990 10986 10987 10988 10991 10994 10991 10992 10995 10998 11003 11005 11004 11005 11005 11001 11001 10999 10999 10997 10997 10996 10993 10990 10988 10987 10984 10983 10982 10982 10985 10987 10988 10986 10986 10985 10985 10984 10983 10982
10993 10991 10990 10988 10985 10983 10983 10984 10985 10986 10985 10989 10992 10996 11000 11002 11002 10997 10995 10996 10996 10994 10992 10993 10993 10990 10990 10986 10985 10984 10982 10981 10982 10981 10981 10982 10983 10981 10981 10981 10980 10979 10977
10989 10988 10988 10987 10986 10984 10982 10982 10983 10985 10986 10986 10989 10994 10998 10998 10995 10992 10992 10991 10989 10989 10989 10990 10991 10990 10990 10988 10984 10983 10982 10979 10977 10975 10973 10972 10975 10976 10975 10973 10972 10971 10971
10986 10985 10985 10985 10984 10983 10981 10980 10981 10982 10984 10986 10987 10990 10993 10993 10996 10994 10993 10986 10982 10980 10982 10981 10980 10983 10983 10984 10983 10982 10982 10978 10975 10970 10966 10964 10966 10966 10968 10964 10961 10959 10957
10982 10982 10982 10982 10982 10981 10980 10978 10977 10978 10980 10982 10984 10989 10993 10996 10997 10991 10989 10981 10976 10973 10974 10973 10972 10972 10974 10976 10977 10976 10982 10976 10972 10970 10969 10961 10955 10954 10952 10951 10951 10948 10946
10976 10976 10977 10978 10978 10977 10977 10975 10976 10977 10978 10977 10980 10982 10986 10989 10988 10983 10977 10970 10966 10967 10966 10965 10963 10965 10964 10967 10968 10969 10969 10965 10960 10961 10961 10956 10951 10941 10936 10938 10939 10936 10935
10969 10970 10970 10971 10971 10972 10971 10971 10970 10971 10971 10971 10972 10970 10969 10971 10968 10965 10961 10960 10959 10959 10959 10956 10955 10956 10956 10956 10956 10954 10956 10954 10947 10946 10942 10943 10941 10938 10927 10926 10923 10923 10921
10962 10964 10964 10965 10965 10965 10961 10961 10961 10960 10961 10961 10961 10959 10957 10957 10955 10954 10952 10949 10946 10945 10944 10944 10942 10939 10942 10943 10942 10940 10938 10939 10937 10935 10932 10932 10929 10930 10920 10913 10911 10909 10907
10953 10955 10955 10955 10956 10956 10954 10954 10952 10951 10949 10949 10949 10946 10942 10942 10940 10939 10937 10935 10931 10930 10930 10932 10927 10928 10929 10929 10925 10924 10924 10925 10922 10921 10919 10920 10917 10915 10908 10902 10898 10895 10892
10943 10942 10942 10942 10942 10941 10941 10939 10938 10935 10934 10934 10933 10931 10930 10931 10929 10927 10926 10921 10916 10917 10917 10914 10914 10914 10914 10912 10909 10905 10906 10908 10908 10904 10903 10903 10903 10897 10894 10890 10885 10883 10879
10930 10930 10929 10929 10928 10927 10924 10922 10921 10919 10918 10916 10914 10913 10915 10914 10913 10909 10909 10907 10905 10903 10900 10897 10894 10892 10889 10888 10885 10881 10880 10883 10886 10884 10884 10884 10884 10881 10879 10876 10871 10869 10867
10921 10920 10919 10917 10916 10913 10910 10908 10905 10903 10901 10899 10896 10895 10896 10895 10893 10892 10891 10891 10887 10883 10880 10875 10873 10867 10863 10859 10858 10858 10855 10855 10856 10859 10859 10863 10863 10862 10861 10858 10855 10855 10853
10915 10913 10911 10909 10906 10903 10900 10897 10894 10891 10889 10887 10884 10880 10880 10878 10878 10876 10873 10871 10867 10864 10859 10856 10851 10846 10841 10837 10832 10830 10828 10826 10827 10831 10836 10839 10839 10840 10841 10835 10837 10836 10836
10910 10909 10907 10904 10901 10898 10894 10890 10887 10884 10881 10877 10874 10872 10869 10866 10863 10861 10859 10856 10853 10849 10845 10840 10835 10831 10824 10816 10809 10804 10802 10801 10802 10803 10809 10813 10817 10819 10820 10820 10818 10819 10816
10906 10905 10902 10899 10896 10893 10890 10887 10884 10880 10875 10872 10868 10864 10860 10856 10853 10851 10847 10844 10840 10837 10832 10827 10822 10817 10810 10801 10794 10789 10784 10783 10784 10784 10787 10791 10794 10798 10800 10802 10801 10800 10801
10904 10901 10899 10896 10893 10891 10887 10883 10880 10877 10873 10868 10864 10860 10856 10852 10848 10845 10841 10836 10832 10827 10821 10816 10810 10804 10799 10791 10785 10781 10777 10775 10774 10773 10773 10774 10778 10781 10784 10784 10784 10784 10783
10901 10899 10896 10892 10889 10887 10885 10882 10879 10875 10871 10866 10861 10857 10853 10848 10843 10838 10834 10829 10823 10818 10813 10807 10802 10796 10790 10784 10779 10775 10772 10769 10767 10766 10766 10766 10768 10770 10770 10770 10769 10769 10768
10899 10896 10893 10891 10889 10887 10884 10882 10879 10875 10871 10866 10861 10855 10851 10846 10840 10836 10831 10825 10818 10810 10804 10799 10794 10788 10782 10776 10770 10766 10764 10763 10762 10760 10758 10758 10758 10757 10758 10758 10757 10754 10753
10897 10895 10893 10890 10888 10887 10885 10882 10877 10874 10870 10865 10860 10855 10850 10844 10839 10832 10825 10817 10808 10801 10795 10790 10785 10780 10774 10768 10763 10759 10755 10753 10752 10751 10749 10749 10748 10747 10746 10746 10744 10742 10741
10896 10895 10893 10890 10888 10886 10883 10880 10876 10872 10868 10865 10860 10854 10850 10844 10835 10827 10821 10812 10803 10796 10791 10785 10777 10771 10765 10758 10753 10749 10744 10741 10739 10737 10736 10735 10735 10734 10733 10732 10732 10730 10729
10895 10893 10891 10889 10886 10883 10880 10877 10874 10870 10867 10863 10858 10854 10849 10843 10834 10826 10820 10811 10800 10793 10789 10782 10772 10764 10756 10750 10744 10739 10735 10730 10726 10723 10721 10720 10719 10719 10718 10717 10716 10714 10713
10892 10890 10889 10886 10884 10882 10879 10875 10872 10868 10864 10860 10855 10851 10847 10840 10833 10826 10820 10814 10806 10798 10789 10779 10770 10759 10751 10746 10739 10733 10728 10722 10717 10712 10710 10708 10707 10705 10703 10701 10699 10697 10695
10889 10888 10887 10884 10881 10879 10876 10872 10868 10865 10862 10858 10854 10849 10845 10839 10831 10824 10818 10811 10804 10796 10785 10775 10765 10757 10750 10743 10737 10731 10723 10716 10711 10706 10702 10700 10699 10697 10696 10694 10691 10688 10685
10886 10884 10882 10880 10878 10875 10871 10868 10864 10861 10857 10854 10850 10846 10840 10835 10828 10820 10814 10808 10801 10792 10784 10773 10764 10757 10748 10741 10735 10727 10721 10714 10709 10705 10700 10698 10696 10695 10694 10692 10690 10688 10686
10882 10880 10879 10876 10873 10870 10866 10863 10859 10856 10853 10850 10845 10841 10837 10832 10826 10818 10810 10803 10795 10788 10780 10774 10764 10752 10746 10740 10732 10724 10719 10714 10709 10705 10702 10699 10697 10696 10695 10693 10691 10689 10687
10878 10876 10874 10872 10870 10867 10863 10859 10855 10852 10848 10845 10841 10838 10834 10828 10821 10815 10809 10802 10795 10790 10782 10773 10764 10754 10746 10740 10732 10725 10719 10714 10710 10706 10703 10702 10700 10699 10697 10695 10693 10691 10688